�������l�o���
Date,Time,MP-1(��Sv/h),MP-2(��Sv/h),MP-3(��Sv/h),MP-4(��Sv/h),MP-5(��Sv/h),MP-6(��Sv/h),MP-7(��Sv/h),MP-8(��Sv/h),����,����(m/s),���J
2021/06/09,00:00,0.619,0.922,0.585,1.123,0.805,0.373,0.646,0.603,��,4.2,��
2021/06/09,00:10,0.621,0.923,0.585,1.127,0.804,0.373,0.645,0.603,��,4.6,��
2021/06/09,00:20,0.621,0.922,0.585,1.126,0.807,0.373,0.646,0.603,���k��,4.4,��
2021/06/09,00:30,0.621,0.922,0.584,1.124,0.805,0.372,0.646,0.604,���k��,3.5,��
2021/06/09,00:40,0.621,0.924,0.586,1.123,0.806,0.372,0.646,0.603,���k��,4.0,��
2021/06/09,00:50,0.623,0.924,0.584,1.125,0.804,0.373,0.646,0.604,���k��,4.7,��
2021/06/09,01:00,0.621,0.920,0.583,1.126,0.804,0.372,0.645,0.603,���k��,5.4,��
2021/06/09,01:10,0.620,0.923,0.585,1.126,0.806,0.372,0.646,0.603,���k��,5.2,��
2021/06/09,01:20,0.621,0.923,0.584,1.129,0.806,0.372,0.648,0.605,���k��,6.8,��
2021/06/09,01:30,0.621,0.921,0.585,1.126,0.805,0.373,0.648,0.603,���k��,5.4,��
2021/06/09,01:40,0.621,0.923,0.584,1.125,0.806,0.372,0.648,0.603,���k��,4.8,��
2021/06/09,01:50,0.622,0.922,0.586,1.126,0.803,0.373,0.645,0.605,���k��,5.3,��
2021/06/09,02:00,0.621,0.924,0.585,1.126,0.805,0.373,0.645,0.602,�k��,4.4,��
2021/06/09,02:10,0.620,0.921,0.585,1.126,0.806,0.373,0.645,0.602,�k��,4.6,��
2021/06/09,02:20,0.622,0.921,0.584,1.126,0.806,0.373,0.645,0.603,���k��,5.4,��
2021/06/09,02:30,0.621,0.922,0.584,1.126,0.805,0.373,0.648,0.604,�k��,5.8,��
2021/06/09,02:40,0.621,0.922,0.586,1.128,0.805,0.373,0.645,0.604,���k��,5.3,��
2021/06/09,02:50,0.620,0.924,0.585,1.127,0.804,0.374,0.646,0.604,���k��,4.7,��
2021/06/09,03:00,0.620,0.922,0.585,1.127,0.806,0.373,0.647,0.604,���k��,4.4,��
2021/06/09,03:10,0.622,0.923,0.586,1.129,0.803,0.373,0.647,0.603,���k��,4.4,��
2021/06/09,03:20,0.622,0.923,0.585,1.126,0.805,0.372,0.646,0.604,�k��,3.8,��
2021/06/09,03:30,0.622,0.924,0.584,1.126,0.803,0.372,0.646,0.603,�k��,3.9,��
2021/06/09,03:40,0.620,0.922,0.585,1.127,0.803,0.373,0.646,0.605,���k��,4.3,��
2021/06/09,03:50,0.620,0.921,0.585,1.125,0.806,0.372,0.647,0.605,�k��,5.0,��
2021/06/09,04:00,0.621,0.922,0.584,1.127,0.805,0.373,0.646,0.603,�k��,4.7,��
2021/06/09,04:10,0.622,0.922,0.584,1.128,0.805,0.371,0.646,0.605,���k��,5.3,��
2021/06/09,04:20,0.621,0.923,0.583,1.123,0.806,0.373,0.645,0.605,���k��,5.6,��
2021/06/09,04:30,0.621,0.921,0.583,1.129,0.804,0.372,0.646,0.604,���k��,5.3,��
2021/06/09,04:40,0.621,0.922,0.587,1.127,0.804,0.371,0.646,0.603,���k��,5.9,��
2021/06/09,04:50,0.622,0.924,0.585,1.126,0.804,0.374,0.644,0.604,���k��,4.7,��
2021/06/09,05:00,0.619,0.924,0.584,1.127,0.805,0.372,0.646,0.603,���k��,4.8,��
2021/06/09,05:10,0.617,0.923,0.583,1.124,0.804,0.374,0.648,0.603,�k��,5.1,��
2021/06/09,05:20,0.621,0.921,0.584,1.127,0.804,0.372,0.648,0.604,�k��,5.7,��
2021/06/09,05:30,0.621,0.923,0.586,1.128,0.804,0.373,0.647,0.603,�k��,4.8,��
2021/06/09,05:40,0.621,0.923,0.585,1.126,0.804,0.371,0.648,0.604,�k��,4.8,��
2021/06/09,05:50,0.622,0.924,0.586,1.128,0.803,0.372,0.648,0.603,�k��,4.3,��
2021/06/09,06:00,0.620,0.922,0.583,1.129,0.805,0.373,0.645,0.604,�k��,3.8,��
2021/06/09,06:10,0.619,0.923,0.586,1.128,0.806,0.373,0.648,0.605,�k��,4.1,��
2021/06/09,06:20,0.620,0.922,0.585,1.127,0.802,0.372,0.647,0.604,�k��,3.7,��
2021/06/09,06:30,0.621,0.918,0.587,1.128,0.804,0.371,0.646,0.603,���k��,2.0,��
2021/06/09,06:40,0.619,0.919,0.584,1.126,0.804,0.373,0.647,0.605,���k��,2.5,��
2021/06/09,06:50,0.620,0.919,0.585,1.127,0.805,0.371,0.647,0.605,�k�k��,2.3,��
2021/06/09,07:00,0.621,0.920,0.584,1.126,0.804,0.370,0.647,0.605,�k�k��,1.7,��
2021/06/09,07:10,0.619,0.921,0.585,1.126,0.804,0.371,0.645,0.604,�k�k��,1.7,��
2021/06/09,07:20,0.621,0.920,0.584,1.128,0.804,0.372,0.646,0.605,�k�k��,2.3,��
2021/06/09,07:30,0.621,0.922,0.584,1.128,0.805,0.370,0.645,0.603,�k,2.3,��
2021/06/09,07:40,0.621,0.920,0.584,1.129,0.804,0.371,0.645,0.604,�k�k��,2.6,��
2021/06/09,07:50,0.621,0.921,0.583,1.128,0.804,0.370,0.645,0.603,�k�k��,3.4,��
2021/06/09,08:00,0.620,0.921,0.586,1.129,0.804,0.371,0.644,0.602,�k�k��,3.6,��
2021/06/09,08:10,0.618,0.922,0.585,1.126,0.804,0.371,0.647,0.601,�k�k��,4.1,��
2021/06/09,08:20,0.619,0.921,0.586,1.128,0.806,0.371,0.645,0.602,�k�k��,4.5,��
2021/06/09,08:30,0.621,0.921,0.585,1.126,0.804,0.370,0.646,0.602,�k�k��,4.8,��
2021/06/09,08:40,0.620,0.921,0.587,1.127,0.804,0.371,0.645,0.603,�k�k��,4.4,��
2021/06/09,08:50,0.621,0.922,0.583,1.129,0.804,0.370,0.645,0.603,�k�k��,5.2,��
2021/06/09,09:00,0.620,0.922,0.585,1.129,0.804,0.373,0.646,0.603,�k,3.7,��
2021/06/09,09:10,0.620,0.923,0.584,1.129,0.805,0.371,0.645,0.603,�k�k��,2.2,��
2021/06/09,09:20,0.623,0.921,0.586,1.129,0.804,0.372,0.644,0.601,�k,2.9,��
2021/06/09,09:30,0.621,0.923,0.583,1.130,0.805,0.370,0.646,0.602,�k�k��,4.2,��
2021/06/09,09:40,0.624,0.922,0.584,1.127,0.804,0.371,0.646,0.603,�k�k��,5.3,��
2021/06/09,09:50,0.622,0.920,0.584,1.130,0.807,0.371,0.646,0.603,�k�k��,5.4,��
2021/06/09,10:00,0.623,0.923,0.584,1.129,0.806,0.372,0.646,0.601,�k��,5.1,��
2021/06/09,10:10,0.623,0.926,0.585,1.130,0.807,0.371,0.644,0.603,�k��,4.4,��
2021/06/09,10:20,0.621,0.923,0.585,1.129,0.806,0.372,0.646,0.603,�k��,4.5,��
2021/06/09,10:30,0.621,0.925,0.584,1.130,0.808,0.372,0.646,0.602,�k�k��,3.2,��
2021/06/09,10:40,0.622,0.925,0.585,1.130,0.809,0.370,0.646,0.603,�k�k��,2.5,��
2021/06/09,10:50,0.623,0.926,0.585,1.129,0.807,0.371,0.646,0.603,�k�k��,2.0,��
2021/06/09,11:00,0.622,0.924,0.584,1.129,0.809,0.372,0.647,0.601,�k�k��,2.2,��
2021/06/09,11:10,0.623,0.926,0.586,1.127,0.808,0.372,0.647,0.603,�k,2.0,��
2021/06/09,11:20,0.624,0.925,0.586,1.125,0.808,0.372,0.647,0.601,���k��,2.3,��
2021/06/09,11:30,0.622,0.928,0.585,1.127,0.809,0.372,0.648,0.603,�k�k��,1.7,��
2021/06/09,11:40,0.622,0.926,0.586,1.129,0.811,0.372,0.647,0.602,�k�k��,3.5,��
2021/06/09,11:50,0.624,0.928,0.587,1.127,0.810,0.373,0.647,0.602,�k�k��,2.6,��
2021/06/09,12:00,0.624,0.928,0.586,1.125,0.813,0.372,0.647,0.603,���k��,3.2,��
2021/06/09,12:10,0.625,0.930,0.588,1.128,0.811,0.373,0.647,0.604,���k��,3.9,��
2021/06/09,12:20,0.624,0.931,0.588,1.128,0.809,0.372,0.646,0.603,��,3.8,��
2021/06/09,12:30,0.625,0.930,0.585,1.128,0.811,0.372,0.645,0.602,��,3.1,��
2021/06/09,12:40,0.624,0.929,0.587,1.129,0.811,0.373,0.645,0.603,���쓌,4.2,��
2021/06/09,12:50,0.623,0.929,0.587,1.129,0.811,0.371,0.646,0.602,��,3.4,��
2021/06/09,13:00,0.624,0.931,0.586,1.129,0.811,0.373,0.647,0.603,��,4.3,��
2021/06/09,13:10,0.624,0.929,0.588,1.131,0.811,0.372,0.645,0.604,���쓌,3.0,��
2021/06/09,13:20,0.624,0.927,0.587,1.129,0.811,0.373,0.646,0.603,��,3.0,��
2021/06/09,13:30,0.625,0.929,0.586,1.129,0.811,0.372,0.646,0.603,�쓌,2.0,��
2021/06/09,13:40,0.625,0.929,0.587,1.129,0.811,0.372,0.647,0.604,��,2.8,��
2021/06/09,13:50,0.625,0.930,0.587,1.129,0.812,0.371,0.646,0.603,�쓌,2.3,��
2021/06/09,14:00,0.624,0.930,0.587,1.132,0.811,0.372,0.646,0.603,�쓌,3.8,��
2021/06/09,14:10,0.626,0.930,0.587,1.130,0.814,0.371,0.646,0.604,���쓌,2.9,��
2021/06/09,14:20,0.625,0.929,0.589,1.128,0.814,0.374,0.646,0.604,�쓌,3.4,��
2021/06/09,14:30,0.625,0.929,0.586,1.130,0.812,0.373,0.645,0.605,�쓌,2.8,��
2021/06/09,14:40,0.623,0.929,0.587,1.131,0.815,0.372,0.648,0.604,��쓌,3.4,��
2021/06/09,14:50,0.625,0.930,0.588,1.129,0.814,0.371,0.646,0.603,��쓌,3.2,��
2021/06/09,15:00,0.624,0.931,0.585,1.132,0.814,0.372,0.647,0.603,��쓌,3.2,��
2021/06/09,15:10,0.625,0.931,0.587,1.133,0.815,0.372,0.646,0.604,��쓌,3.7,��
2021/06/09,15:20,0.626,0.930,0.587,1.131,0.814,0.373,0.646,0.603,�쓌,3.7,��
2021/06/09,15:30,0.623,0.929,0.587,1.130,0.813,0.373,0.648,0.602,�쓌,4.2,��
2021/06/09,15:40,0.622,0.929,0.586,1.131,0.813,0.372,0.646,0.604,�쓌,4.1,��
2021/06/09,15:50,0.625,0.932,0.586,1.127,0.813,0.371,0.646,0.603,��쓌,5.7,��
2021/06/09,16:00,0.626,0.930,0.588,1.131,0.816,0.372,0.647,0.604,��쓌,5.0,��
2021/06/09,16:10,0.624,0.932,0.587,1.133,0.814,0.372,0.648,0.604,��쓌,4.9,��
2021/06/09,16:20,0.625,0.932,0.587,1.131,0.813,0.372,0.645,0.604,��쓌,4.8,��
2021/06/09,16:30,0.627,0.933,0.587,1.130,0.813,0.374,0.647,0.602,��쓌,5.0,��
2021/06/09,16:40,0.624,0.931,0.588,1.130,0.812,0.372,0.647,0.604,�쓌,3.9,��
2021/06/09,16:50,0.624,0.932,0.588,1.132,0.816,0.374,0.647,0.602,�쓌,2.8,��
2021/06/09,17:00,0.627,0.932,0.588,1.133,0.814,0.372,0.647,0.601,��쓌,2.9,��
2021/06/09,17:10,0.625,0.932,0.588,1.134,0.814,0.371,0.648,0.604,���쓌,2.2,��
2021/06/09,17:20,0.623,0.931,0.586,1.134,0.812,0.372,0.645,0.604,��,2.6,��
2021/06/09,17:30,0.625,0.933,0.587,1.133,0.813,0.372,0.646,0.602,���k��,3.1,��
2021/06/09,17:40,0.624,0.934,0.586,1.131,0.814,0.372,0.647,0.603,���k��,3.1,��
2021/06/09,17:50,0.624,0.934,0.585,1.133,0.812,0.371,0.647,0.604,�k��,2.6,��
2021/06/09,18:00,0.623,0.935,0.585,1.134,0.814,0.371,0.644,0.603,���k��,2.3,��
2021/06/09,18:10,0.625,0.934,0.586,1.132,0.814,0.372,0.645,0.603,�k��,2.6,��
2021/06/09,18:20,0.624,0.936,0.586,1.133,0.815,0.372,0.646,0.603,�k��,2.3,��
2021/06/09,18:30,0.622,0.935,0.585,1.135,0.814,0.371,0.646,0.606,�k��,2.0,��
2021/06/09,18:40,0.623,0.935,0.586,1.132,0.814,0.373,0.646,0.605,�k�k��,2.3,��
2021/06/09,18:50,0.626,0.934,0.587,1.134,0.813,0.374,0.646,0.606,���k��,2.2,��
2021/06/09,19:00,0.625,0.935,0.586,1.136,0.815,0.374,0.647,0.605,���k��,1.7,��
2021/06/09,19:10,0.624,0.934,0.587,1.137,0.816,0.375,0.646,0.604,���k��,1.2,��
2021/06/09,19:20,0.626,0.935,0.588,1.140,0.816,0.373,0.648,0.605,�k��,1.9,��
2021/06/09,19:30,0.624,0.936,0.589,1.137,0.816,0.373,0.647,0.606,���k��,1.9,��
2021/06/09,19:40,0.627,0.936,0.590,1.134,0.820,0.372,0.647,0.606,���k��,1.7,��
2021/06/09,19:50,0.626,0.936,0.588,1.136,0.815,0.373,0.645,0.605,���k��,2.0,��
2021/06/09,20:00,0.623,0.935,0.590,1.136,0.816,0.373,0.647,0.606,���k��,1.4,��
2021/06/09,20:10,0.624,0.935,0.589,1.136,0.816,0.373,0.646,0.605,��,1.7,��
2021/06/09,20:20,0.625,0.934,0.587,1.136,0.814,0.372,0.646,0.605,���쓌,2.0,��
2021/06/09,20:30,0.625,0.935,0.588,1.138,0.813,0.371,0.648,0.605,�쓌,2.2,��
2021/06/09,20:40,0.626,0.935,0.589,1.134,0.815,0.372,0.647,0.606,���쓌,2.5,��
2021/06/09,20:50,0.625,0.936,0.588,1.136,0.815,0.373,0.647,0.605,�쓌,3.1,��
2021/06/09,21:00,0.625,0.934,0.587,1.137,0.811,0.371,0.649,0.605,�쓌,2.6,��
2021/06/09,21:10,0.625,0.935,0.588,1.134,0.815,0.371,0.648,0.604,�쓌,2.3,��
2021/06/09,21:20,0.629,0.935,0.589,1.137,0.812,0.371,0.648,0.603,���쓌,1.7,��
2021/06/09,21:30,0.626,0.935,0.587,1.134,0.811,0.372,0.647,0.605,�쓌,1.9,��
2021/06/09,21:40,0.625,0.937,0.588,1.136,0.812,0.372,0.646,0.605,���쓌,2.0,��
2021/06/09,21:50,0.626,0.934,0.587,1.136,0.812,0.371,0.647,0.605,���쓌,1.5,��
2021/06/09,22:00,0.628,0.935,0.588,1.136,0.811,0.372,0.647,0.605,���k��,1.7,��
2021/06/09,22:10,0.625,0.936,0.589,1.134,0.812,0.372,0.645,0.604,�k��,1.4,��
2021/06/09,22:20,0.625,0.935,0.588,1.136,0.815,0.372,0.647,0.605,��,1.4,��
2021/06/09,22:30,0.625,0.935,0.589,1.135,0.814,0.372,0.646,0.604,���쓌,1.7,��
2021/06/09,22:40,0.628,0.935,0.587,1.136,0.814,0.371,0.647,0.605,��,1.5,��
2021/06/09,22:50,0.624,0.938,0.588,1.135,0.814,0.371,0.647,0.606,�k��,1.4,��
2021/06/09,23:00,0.625,0.934,0.588,1.134,0.815,0.372,0.646,0.606,�k�k��,1.1,��
2021/06/09,23:10,0.625,0.936,0.589,1.137,0.814,0.371,0.646,0.606,�k��,0.9,��
2021/06/09,23:20,0.626,0.934,0.589,1.135,0.814,0.372,0.647,0.604,�k�k��,1.4,��
2021/06/09,23:30,0.625,0.936,0.588,1.135,0.815,0.373,0.646,0.604,�k�k��,1.7,��
2021/06/09,23:40,0.627,0.937,0.589,1.134,0.813,0.373,0.648,0.605,�k��,1.5,��
2021/06/09,23:50,0.625,0.935,0.588,1.135,0.815,0.372,0.646,0.604,�k�k��,1.5,��
